Wind_Speed
17 14 12 11 12 13 16 19 20 20 23 23 27 31 32 30 30 30 26 20 17 19 20 19 18 18 18 18 18 16 16 17 17 19 19 20 21 22 19 17 17 20 23 18 14
20 17 15 14 14 16 17 19 21 22 23 23 25 29 31 31 30 27 26 20 17 16 18 18 17 18 19 19 17 15 13 13 14 19 20 22 24 24 24 22 20 21 23 21 18
23 21 18 17 17 18 18 20 22 23 25 25 25 26 28 31 30 25 24 20 18 16 15 14 15 16 17 17 18 16 15 13 16 19 20 23 24 25 25 23 22 21 22 23 21
26 24 20 18 19 20 20 22 24 25 25 26 26 26 26 29 31 26 22 20 17 17 15 14 12 13 14 14 16 17 17 18 18 19 20 22 23 26 27 27 26 25 22 23 24
28 26 23 21 21 23 22 24 26 26 26 28 27 27 27 28 31 30 24 19 17 18 17 15 13 10 10 12 14 14 15 16 17 19 20 22 24 26 28 29 29 27 24 24 25
30 28 26 24 24 25 25 27 28 28 29 29 28 27 28 30 33 32 26 20 17 16 18 17 15 14 12 11 12 13 14 14 15 17 19 20 23 26 27 28 28 29 26 25 23
32 31 29 26 26 28 27 28 30 31 30 31 29 29 28 32 35 34 29 23 19 16 16 18 18 18 16 14 13 13 14 16 16 16 16 18 19 22 24 26 26 28 27 26 21
34 32 30 29 29 30 30 30 32 33 33 33 32 32 30 32 35 38 32 25 21 20 20 20 20 19 19 18 17 16 15 15 18 18 18 18 19 19 21 23 24 25 27 25 26
37 34 34 32 33 33 33 33 34 35 36 35 34 34 32 35 37 40 34 27 23 22 22 23 23 21 21 22 21 21 20 19 20 20 21 21 20 21 21 21 21 23 25 25 25
41 39 37 37 36 36 36 36 37 38 39 39 37 35 35 37 40 41 35 27 25 25 25 24 24 25 23 24 25 24 24 23 23 24 24 23 23 21 21 22 21 21 21 24 24
43 42 40 39 37 36 37 39 40 40 43 41 39 37 36 39 43 42 36 29 28 27 25 26 28 28 26 26 26 28 28 27 26 27 27 28 26 26 25 23 22 21 22 22 22
46 44 43 41 40 40 42 43 42 44 44 42 42 40 40 43 45 43 38 32 31 29 29 29 29 29 28 29 29 27 30 30 28 28 28 27 28 28 28 26 24 24 23 23 24
48 46 45 44 43 44 45 44 43 45 46 46 44 43 45 48 48 47 41 37 36 34 34 33 32 30 30 31 31 30 30 32 31 30 30 29 29 30 31 30 26 27 26 26 26
50 49 48 48 49 48 48 48 47 50 48 47 46 48 51 52 50 48 42 41 39 38 37 36 34 31 32 31 30 32 32 34 35 35 33 33 34 28 31 29 28 29 27 29 29
51 53 53 52 50 49 49 50 50 49 48 49 50 53 56 56 53 48 46 46 44 43 40 39 36 33 33 33 33 33 34 35 37 37 38 34 37 32 30 30 30 29 28 29 30
58 57 56 55 55 54 53 53 52 52 50 53 56 58 59 58 54 51 51 48 47 45 42 40 37 36 35 34 35 35 36 36 36 38 39 37 39 38 34 32 32 32 30 31 31
58 57 57 57 57 56 56 56 55 56 56 59 60 62 62 59 56 55 53 51 49 47 43 41 39 38 36 35 36 36 37 36 34 37 40 35 40 40 35 36 36 36 34 34 35
64 63 62 60 60 60 61 60 60 60 63 64 66 66 64 61 59 57 54 51 50 49 48 46 40 39 36 34 33 33 32 32 34 36 38 38 36 37 39 39 39 39 38 38 38
69 69 67 67 67 67 67 67 65 65 67 69 68 66 66 64 60 56 53 51 52 52 51 45 43 37 34 33 32 25 29 29 30 34 34 38 37 35 36 41 40 41 43 43 44
76 76 74 73 72 72 70 71 68 71 71 71 70 67 66 61 58 55 54 55 55 53 50 43 43 33 32 31 29 30 26 29 30 30 33 36 38 37 37 42 45 49 49 49 50
77 78 77 76 75 74 75 75 72 71 71 70 69 65 62 59 60 59 59 54 53 48 45 40 39 36 32 33 34 29 34 33 36 35 36 40 47 44 45 45 49 53 52 52 53
83 82 82 79 77 76 75 71 72 70 70 67 64 62 63 62 61 61 58 52 46 41 40 36 39 37 34 31 37 36 39 40 41 44 46 49 52 54 53 54 54 57 57 56 55
84 82 82 79 78 76 73 73 70 68 67 66 66 64 62 62 60 57 54 43 43 41 38 37 38 38 40 42 35 43 46 49 50 50 52 54 57 58 54 54 56 56 58 61 60
83 82 80 77 76 76 73 73 72 70 69 67 65 65 63 61 57 53 53 44 47 45 45 44 45 46 48 51 48 45 51 55 56 57 58 59 59 61 61 60 62 62 61 62 64
84 82 81 80 78 79 76 73 73 70 67 66 65 65 62 58 56 56 56 55 55 51 51 51 50 51 51 54 55 54 55 57 57 58 58 61 63 64 63 64 65 66 66 68 68
87 85 85 82 81 79 77 75 73 69 69 68 66 62 63 63 60 62 62 62 58 54 59 56 55 55 55 57 57 57 60 60 63 64 63 64 64 65 64 67 69 69 68 70 71
89 87 87 84 83 80 78 74 73 71 71 67 66 66 67 63 64 65 62 63 62 61 58 60 62 63 61 62 61 61 64 65 65 66 68 68 68 72 69 69 72 71 70 74 72
Wind_Direction
226 233 250 267 282 298 316 328 340 350 355 3 14 15 18 15 15 19 23 22 26 29 29 36 26 29 30 32 42 49 47 44 35 36 33 29 26 26 21 14 8 8 9 12 19
231 237 249 262 277 292 308 319 327 337 345 354 3 12 14 16 12 14 17 18 13 20 22 32 37 33 34 27 32 40 41 43 42 39 36 36 31 26 24 22 17 18 16 18 22
236 239 249 261 274 287 297 308 317 327 334 346 354 359 9 10 10 7 13 13 9 8 11 21 26 31 40 38 36 37 36 32 31 34 35 33 32 29 29 29 21 21 17 22 23
241 243 248 260 272 282 292 301 309 317 325 335 345 350 359 3 5 6 2 9 4 4 358 2 11 17 19 31 33 33 34 31 32 31 28 32 30 32 32 31 26 22 18 19 22
240 243 247 257 268 278 286 295 302 309 317 326 335 340 347 354 359 1 355 353 360 356 356 348 346 354 1 4 11 21 23 24 27 28 25 25 26 29 31 32 28 25 16 18 20
239 242 248 254 263 274 281 290 297 303 310 319 327 334 340 345 351 352 351 341 346 349 345 344 338 332 333 338 344 350 356 3 10 13 15 14 19 22 26 30 26 29 25 19 13
239 243 248 255 262 270 278 285 291 297 304 312 321 329 333 337 342 346 344 336 328 333 340 334 333 326 321 317 320 327 333 334 338 344 351 360 4 11 16 25 24 24 23 20 17
240 244 248 256 262 269 276 281 287 293 300 306 314 321 324 330 333 339 337 333 326 322 326 329 326 322 317 308 305 306 313 324 327 328 331 333 341 352 359 6 22 22 18 18 13
242 246 251 256 262 266 271 277 283 289 294 301 308 314 318 322 328 332 333 329 325 324 322 324 323 320 315 311 305 300 297 301 311 316 325 330 331 333 339 347 358 15 16 13 13
244 247 251 256 260 263 268 274 280 286 290 298 304 309 314 320 324 328 329 327 325 324 320 318 316 316 317 311 306 300 298 297 300 305 310 316 321 326 329 333 342 350 5 13 6
246 249 251 254 257 261 267 272 278 283 288 294 300 305 309 315 319 323 323 321 321 320 318 317 315 309 309 308 302 298 296 296 299 301 301 305 310 313 317 325 330 337 340 354 1
245 248 251 252 255 261 266 270 274 280 285 292 298 301 306 311 314 316 316 315 317 316 315 315 311 307 304 302 298 295 293 293 293 294 295 295 299 302 305 309 315 320 329 335 343
243 246 249 252 256 260 264 268 274 279 285 291 294 298 302 306 308 310 310 309 312 312 313 313 310 305 301 297 297 295 291 289 289 289 291 292 295 296 300 303 306 310 316 324 327
244 247 249 252 257 260 264 268 272 279 282 287 290 296 299 302 303 306 306 306 308 309 311 311 310 303 302 299 295 291 292 289 287 289 289 291 290 293 298 301 306 305 312 316 319
243 247 250 253 255 258 262 266 271 275 279 283 289 293 295 298 301 303 302 304 305 305 308 308 307 303 301 300 297 289 286 284 285 286 289 291 292 294 298 300 302 305 306 308 311
246 248 251 253 256 259 262 266 269 273 279 283 287 290 293 296 298 299 300 301 302 302 305 303 303 300 298 298 295 287 283 282 280 282 284 287 288 292 297 298 302 303 303 305 308
244 246 250 253 256 259 262 265 268 273 278 282 284 287 290 293 295 296 297 298 299 300 303 302 301 298 296 295 292 287 282 283 278 278 281 283 288 293 295 299 300 302 303 304 305
244 246 248 253 256 259 262 265 268 274 277 280 283 285 287 290 292 294 295 295 298 299 300 299 298 294 292 290 286 284 279 277 276 278 281 287 285 290 295 295 296 299 301 301 304
245 247 249 252 256 259 262 266 269 272 275 279 280 283 287 289 290 290 292 293 295 296 297 296 294 288 288 286 286 281 281 277 278 280 284 288 290 288 289 292 295 297 300 303 304
246 248 250 253 256 259 262 265 269 272 274 276 279 282 283 285 285 288 288 291 292 293 292 290 289 284 284 280 277 276 276 280 281 284 289 289 286 288 289 293 296 297 299 301 302
247 249 252 254 256 258 262 265 267 269 271 273 277 279 280 281 283 285 286 288 290 287 287 285 282 285 276 278 274 272 282 278 282 283 284 285 286 289 292 293 292 294 297 299 299
247 249 252 254 256 257 259 263 264 267 270 273 274 275 277 280 281 283 284 287 282 285 282 284 283 285 282 275 279 286 283 282 284 286 289 289 290 295 297 296 298 297 297 297 296
246 247 250 253 255 257 259 260 262 264 267 269 272 274 276 278 279 281 282 282 280 281 281 280 279 281 281 283 280 281 282 285 287 287 287 289 290 291 290 290 292 293 294 297 298
245 247 249 251 253 255 257 259 261 263 265 267 269 272 275 275 276 277 279 279 279 281 277 278 278 278 280 282 282 279 281 285 288 290 290 291 291 291 294 296 293 294 294 293 292
245 247 248 250 252 255 256 258 260 262 264 267 270 270 272 273 274 277 278 280 278 280 277 277 276 278 279 281 284 285 284 283 284 284 286 286 288 288 292 291 291 292 292 293 293
245 248 250 250 252 255 255 257 259 261 264 266 268 269 271 273 276 276 277 278 280 279 279 279 280 280 281 281 282 283 283 285 285 286 287 287 288 289 290 290 291 291 293 293 293
246 247 249 250 251 253 255 258 260 261 263 265 267 267 269 274 272 273 274 276 279 280 279 280 283 283 283 283 285 286 285 286 287 287 288 288 291 291 290 290 290 290 293 292 294
Height
11012 11014 11016 11016 11016 11016 11016 11015 11015 11015 11013 11011 11009 11005 11001 10997 10994 10991 10988 10986 10985 10982 10980 10978 10974 10972 10971 10970 10969 10968 10966 10962 10959 10956 10954 10951 10948 10944 10940 10937 10935 10931 10926 10922 10921
11010 11012 11014 11014 11014 11014 11014 11014 11013 11013 11013 11011 11009 11006 11002 10999 10996 10993 10991 10989 10987 10986 10983 10981 10978 10976 10974 10971 10970 10969 10967 10964 10962 10959 10956 10952 10949 10944 10941 10938 10934 10930 10926 10922 10920
11007 11009 11011 11012 11011 11012 11012 11012 11012 11012 11011 11010 11009 11007 11004 11000 10998 10995 10993 10990 10988 10987 10986 10984 10981 10979 10977 10974 10972 10970 10967 10964 10962 10960 10957 10953 10950 10946 10942 10939 10935 10931 10927 10923 10920
11004 11006 11008 11009 11009 11009 11010 11009 11010 11010 11009 11008 11007 11005 11004 11001 10999 10996 10994 10992 10989 10987 10986 10985 10983 10980 10979 10976 10974 10971 10968 10965 10963 10960 10957 10955 10951 10947 10943 10939 10935 10931 10928 10924 10921
11001 11003 11005 11007 11006 11006 11007 11007 11006 11006 11007 11006 11006 11004 11002 11001 10999 10996 10994 10993 10990 10987 10986 10985 10984 10982 10979 10978 10975 10973 10970 10967 10964 10962 10959 10956 10952 10948 10945 10940 10937 10933 10928 10926 10923
10997 10999 11001 11003 11003 11002 11004 11003 11003 11003 11003 11003 11003 11002 11001 10999 10997 10995 10994 10992 10990 10988 10986 10984 10983 10981 10980 10978 10976 10974 10971 10968 10965 10963 10960 10957 10954 10950 10946 10941 10938 10935 10931 10927 10925
10992 10994 10996 10998 10999 10998 11000 11000 11000 10999 11000 11000 11000 11000 10998 10997 10995 10994 10992 10990 10988 10987 10985 10982 10981 10979 10978 10977 10976 10973 10972 10968 10965 10963 10960 10958 10954 10951 10948 10944 10940 10935 10932 10928 10927
10987 10989 10992 10993 10994 10994 10995 10995 10995 10996 10996 10996 10996 10996 10996 10994 10993 10991 10990 10988 10986 10984 10982 10980 10978 10977 10975 10974 10973 10972 10970 10967 10964 10961 10959 10957 10954 10951 10948 10945 10942 10937 10932 10929 10926
10981 10984 10986 10988 10989 10990 10991 10991 10991 10991 10992 10992 10993 10992 10992 10991 10990 10989 10987 10985 10983 10981 10979 10977 10975 10974 10973 10970 10969 10967 10967 10965 10962 10959 10957 10954 10952 10949 10947 10944 10942 10938 10934 10930 10927
10974 10977 10980 10981 10983 10985 10985 10985 10986 10986 10986 10987 10988 10988 10987 10987 10986 10984 10983 10981 10980 10977 10975 10974 10971 10969 10969 10967 10964 10963 10961 10960 10958 10957 10953 10951 10948 10948 10946 10944 10940 10938 10935 10931 10927
10967 10970 10974 10975 10976 10978 10979 10979 10980 10981 10980 10982 10983 10982 10982 10982 10980 10980 10979 10977 10976 10974 10972 10970 10967 10965 10963 10962 10960 10958 10956 10956 10954 10952 10950 10947 10944 10942 10942 10941 10938 10936 10933 10929 10927
10960 10962 10965 10968 10969 10971 10972 10973 10973 10974 10975 10975 10976 10976 10976 10976 10975 10975 10974 10973 10971 10969 10967 10965 10963 10960 10958 10956 10954 10953 10952 10951 10950 10948 10946 10944 10941 10940 10938 10938 10935 10932 10929 10925 10923
10951 10955 10956 10959 10961 10963 10964 10965 10966 10967 10968 10968 10968 10969 10969 10970 10969 10968 10967 10966 10965 10963 10961 10959 10956 10954 10952 10950 10948 10947 10946 10944 10944 10942 10940 10939 10937 10935 10933 10932 10931 10927 10923 10920 10917
10942 10945 10948 10950 10952 10954 10956 10958 10958 10959 10961 10961 10961 10961 10961 10962 10962 10961 10960 10959 10957 10956 10954 10952 10950 10948 10946 10943 10942 10940 10939 10937 10936 10935 10934 10931 10929 10932 10927 10927 10924 10921 10919 10915 10911
10934 10935 10938 10941 10943 10945 10947 10948 10949 10950 10953 10952 10953 10953 10953 10953 10953 10953 10952 10950 10949 10947 10947 10944 10943 10941 10939 10937 10935 10934 10932 10930 10929 10928 10926 10925 10920 10921 10922 10919 10917 10914 10913 10910 10907
10925 10926 10928 10931 10933 10935 10937 10939 10940 10941 10944 10944 10944 10943 10943 10944 10944 10943 10943 10942 10940 10939 10938 10937 10935 10933 10932 10930 10928 10927 10925 10924 10922 10920 10918 10919 10914 10912 10913 10911 10909 10906 10905 10903 10900
10912 10916 10917 10920 10923 10925 10926 10928 10930 10930 10934 10934 10934 10934 10934 10934 10935 10934 10933 10932 10931 10929 10929 10927 10926 10924 10923 10921 10919 10918 10916 10915 10914 10912 10909 10912 10906 10904 10905 10901 10898 10897 10896 10894 10892
10899 10904 10907 10909 10912 10913 10915 10918 10920 10922 10922 10921 10923 10923 10923 10924 10925 10924 10923 10922 10920 10919 10918 10917 10917 10914 10913 10911 10911 10908 10906 10906 10905 10903 10901 10900 10901 10899 10896 10894 10892 10888 10886 10884 10881
10885 10889 10894 10898 10899 10901 10904 10906 10909 10911 10910 10910 10910 10912 10911 10912 10913 10912 10912 10912 10910 10909 10908 10907 10906 10905 10904 10902 10900 10901 10897 10897 10896 10894 10895 10891 10890 10889 10891 10884 10883 10880 10877 10874 10871
10871 10875 10879 10883 10887 10889 10892 10892 10900 10897 10897 10898 10899 10901 10899 10901 10900 10902 10903 10902 10900 10898 10896 10897 10894 10898 10895 10895 10894 10891 10892 10889 10889 10889 10887 10883 10881 10880 10882 10877 10873 10869 10866 10864 10860
10858 10859 10863 10868 10872 10876 10878 10883 10885 10884 10885 10886 10886 10888 10886 10889 10888 10890 10889 10893 10889 10887 10886 10886 10883 10886 10886 10884 10882 10885 10881 10882 10880 10881 10880 10877 10870 10869 10869 10867 10864 10859 10856 10854 10850
10841 10845 10843 10852 10857 10860 10863 10870 10870 10873 10872 10873 10873 10873 10875 10876 10876 10876 10877 10880 10876 10878 10875 10877 10874 10873 10874 10876 10872 10873 10871 10870 10870 10868 10866 10863 10858 10852 10853 10851 10849 10844 10841 10839 10836
10822 10829 10830 10836 10840 10844 10851 10852 10855 10858 10859 10860 10861 10861 10862 10863 10862 10863 10863 10870 10867 10866 10867 10867 10864 10863 10861 10860 10866 10862 10859 10857 10856 10856 10854 10850 10845 10841 10844 10844 10839 10835 10828 10822 10819
10803 10809 10815 10820 10823 10827 10834 10837 10839 10842 10844 10845 10848 10847 10850 10849 10850 10852 10850 10858 10854 10857 10855 10855 10854 10853 10851 10848 10850 10854 10849 10844 10843 10840 10838 10833 10831 10825 10824 10826 10819 10817 10815 10812 10807
10784 10792 10797 10802 10808 10809 10816 10821 10822 10826 10830 10830 10834 10834 10834 10835 10837 10837 10839 10841 10841 10845 10844 10842 10842 10841 10841 10837 10835 10836 10835 10832 10831 10828 10827 10821 10816 10813 10814 10808 10805 10802 10799 10793 10788
10766 10774 10778 10785 10789 10793 10798 10802 10806 10812 10813 10816 10818 10821 10819 10822 10826 10823 10823 10822 10828 10831 10824 10827 10826 10827 10827 10825 10825 10824 10818 10817 10814 10812 10810 10806 10802 10799 10799 10792 10787 10785 10784 10776 10771
10746 10752 10758 10768 10768 10774 10779 10786 10789 10794 10797 10802 10803 10805 10804 10811 10809 10807 10810 10809 10811 10810 10813 10811 10809 10808 10811 10808 10809 10808 10804 10802 10798 10795 10791 10788 10785 10778 10779 10777 10770 10768 10767 10756 10755